Powrót do katalogu

SL-14 R/B

AktywnyPO
NORAD 15475·ROCKET BODY·🇷🇺 Russia

Wystrzelony Jan 15, 1985 z Plesetsk Cosmodrome

Loading…

Następne Przeloty (najbliższe 24 godziny)

TLE

ŚwieżeSource: Space-Track

Epoka: Sep 14, 2026, 18:15 UTC

1 15475U 85003G   26257.76102699  .00000019  00000-0  54961-4 0  9999
2 15475  82.6149 184.9835 0037581   2.3724  23.9582 12.55180190908754

Śledź SL-14 R/B w czasie rzeczywistym z AllMySat

Download on the App Store